7 * 24
多渠道服务支持
TIANQI-24 是中国最新一代气象卫星,主要用于气象监测和空间环境探测。该卫星具备高分辨率成像和实时数据传输能力,可提供更精准的天气预报和气候分析。其先进传感器可监测大气温度、湿度及云层变化,提升灾害性天气预警水平。TIANQI-24 的发射进一步完善了中国气象卫星体系,对防灾减灾、生态环境保护和航空航天安全具有重要意义。
中国
(CN)
| 数据来源 | 国际轨道数据 |
| 星历时间: | 2025-10-28T21:41:18+0800 17小时前 查看轨道信息 |
| 半长轴: | 7193.469km |
| 偏心率: | 0.0014116 |
| 轨道倾角: | 49.974° |
| 近地点辐角 | 172.574° |
| 升交点赤经 | 47.217° |
| 平近点角 | 187.538° |
| 近地点: | 805.179km |
| 远地点: | 825.489km |
| 周期: | 101.197分钟 |
| 每日圈数: | 14.229683 |